DMSP 5D-2 F13 DEB, 42281

Orbit data source: Space-Track

DMSP 5D-2 F13 DEB, 42281 is space debris in SSO originally from a launch on Fri, 24 Mar 1995 UTC launched from the Air Force Western Test Range (AFWTR). Debris objects in space refer to the collection of defunct objects orbiting the Earth. Examples of debris include non-operational satellites, rocket bodies, and fragments generated from explosions, collisions, or faulty payload assembly.

Loading next visibility...
Identifier
42281, 1995-015GX
Orbit
SSO
Country
Flag of USUS
Related business
Manufacturer
Unknown
Mission
Spacecraft
Bus & Motor
Unknown
Mass
Unknown
Launch date (UTC)
1995-03-24 (31 years ago)
Launch vehicle
Unknown
Launch site
Air Force Western Test Range (AFWTR)
Object type
Payload
Rocket body
Debris
Shape & HBR
Unknown shape, 0.1 m
Radar Cross Section
Small (<0.1 m²)

Expand to show TLE details & history
Last TLE update: 3 days ago

TLE from 3 days ago
0 DMSP 5D-2 F13 DEB
1 42281U 95015GX  26093.12280620  .00022688  00000-0  45151-2 0  9992
2 42281  98.5430 158.3852 0025096 268.1752  91.6573 14.61859185572837
Epoch: 2026-04-03T02:56Z
TLE epoch observation values (Epoch: 2026-04-03T02:56:50.455Z)
Latitude
-0.0001°
Longitude
-77.28647°
Altitude
690.711 km
Speed
7.511 km/s
True Right ascension
10h 33m 32s
True Declination
0° 00' 00"
Sunlit
Object was in full shadow at epoch
Visualization orbit readout
Latitude
Unknown
Longitude
Unknown
Altitude
Unknown
Speed
Unknown
Apparent Right ascension
Unknown
Apparent Declination
Unknown
Sunlit
N/A
Visualization observer readout
Local Sidereal Time
22:20:32
Azimuth
Unknown
Elevation
Unknown
Doppler factor
Unknown
Orbital elements
Apogee altitude
701.996 km
Perigee altitude
666.548 km
Semi-major axis
7,062.409 km
Eccentricity
0.00251
Inclination
98.543°
RAAN
158.3852°
Arg. of periapsis
268.1752°
True anomaly
91.94473°
Mean anomaly
91.6573°
Eccentric anomaly
91.80102°
Mean motion
3.65691 °/min
Orbital period
98.44 mins
BSTAR
0.0045151
Loading maneuver chart data...
Computing Atmospheric mass density...
Loading historical data...
Loading historical data...
Loading historical data...
Loading historical data...
Loading historical data...
Loading historical data...
Loading historical data...

Documentation

Showing up to 5 results
|